{"data":{"norad_id":68587,"intl_designator":"2026-072Q","name":"KUIPER-00269","alt_names":[],"object_type":"PAYLOAD","status":"ACTIVE","operator":null,"country":"US","launch_date":"2026-04-04","launch_site_code":"AFETR","launch_vehicle":null,"mission":null,"orbit_class":"UNKNOWN","rcs_meters":null,"size_class":null,"mass_kg":null,"dimensions":null,"purposes":[],"wikipedia_slug":null,"has_3d_model":false,"image_url":null,"decayed_at":null,"tle_current":{"epoch":"2026-09-19T23:50:25.535040Z","epoch_age_seconds":110202,"freshness":"FRESH","line1":"1 68587U 26072Q   26262.99335110  .00001842  00000+0  27050-3 0  9991","line2":"2 68587  51.8998 113.9254 0001108 106.9124 253.1960 14.79939194 25474","mean_motion":14.79939194,"eccentricity":0.0001108,"inclination_deg":51.8998,"raan_deg":113.9254,"arg_perigee_deg":106.9124,"mean_anomaly_deg":253.196,"bstar":0.0002705,"rev_number":2547,"period_min":97.301294934148,"perigee_km":628.73962835921,"apogee_km":630.29252428092,"semimajor_km":7007.6530763201,"source":"CELESTRAK","updated_at":"2026-09-20T09:00:24.322164Z"}}}